Wind_Speed
24 22 19 21 21 22 23 23 24 22 26 28 29 27 23 23 22 22 20 19 19 19 20 23 22 21 22 22 26 26 27 24 4 14 18 10 8 11 9 6 6 5 6
20 19 18 19 17 19 21 24 24 25 22 23 24 25 23 20 20 21 23 21 22 20 18 16 15 14 20 21 19 21 24 24 12 6 15 13 9 7 5 3 3 2 3
16 18 15 15 17 20 21 23 23 23 24 21 20 22 24 21 18 18 19 17 17 17 17 18 16 14 15 14 12 14 15 13 16 16 7 9 6 5 3 6 5 5 4
20 16 15 17 18 20 21 21 24 24 21 20 20 18 18 19 19 18 19 19 17 16 17 17 15 16 14 14 12 11 12 13 8 5 5 7 5 7 10 8 7 7 6
19 19 16 18 20 20 22 22 22 22 20 19 18 20 19 17 17 16 16 12 10 10 13 13 16 15 16 15 13 15 13 11 7 6 6 11 14 10 11 8 7 5 6
21 20 19 20 19 18 20 19 17 19 19 20 21 21 19 18 17 19 19 15 15 16 14 14 14 14 17 21 19 17 16 13 14 14 12 13 8 7 8 9 5 5 2
20 20 16 17 18 22 20 20 20 18 19 20 21 19 22 18 17 16 16 15 16 17 17 18 15 14 17 14 9 11 13 14 13 13 11 9 8 10 6 6 4 4 5
20 18 16 19 21 21 21 21 21 19 21 19 21 22 21 20 20 18 14 12 14 14 17 16 15 14 14 12 11 11 12 11 10 10 9 10 9 8 7 6 2 1 3
18 16 16 16 18 20 20 21 21 22 22 22 19 20 19 20 26 25 16 14 13 14 15 19 15 14 16 13 11 9 10 9 11 9 9 9 7 6 5 6 3 5 4
15 14 14 15 18 18 18 18 18 20 20 20 19 18 19 19 26 24 19 16 20 17 15 15 19 18 17 16 16 13 14 12 11 6 4 7 4 6 9 7 9 14 8
15 13 13 14 15 19 19 19 18 18 20 22 20 19 18 19 20 24 22 16 15 14 15 15 16 18 16 15 16 14 10 7 9 9 8 11 11 10 8 9 11 9 10
11 11 10 11 15 17 17 17 19 22 24 22 21 20 19 18 22 23 22 19 16 13 12 12 11 13 15 15 14 14 11 11 11 10 11 10 8 8 8 8 10 11 11
9 9 9 10 12 14 16 19 22 22 20 19 20 18 20 20 18 19 17 17 21 12 11 13 14 16 13 12 14 13 12 12 9 9 8 7 7 6 6 6 8 10 14
8 6 8 9 8 15 14 16 19 19 18 18 17 20 18 17 20 21 21 22 22 22 23 23 17 16 22 20 15 13 13 11 10 9 7 7 7 7 7 7 7 9 14
8 5 7 7 9 11 12 16 14 14 18 15 16 14 19 19 19 19 17 18 16 14 19 26 24 19 18 19 18 17 15 13 12 9 7 7 7 8 9 9 11 12 13
6 6 8 9 7 12 8 7 13 14 17 17 18 17 12 16 18 17 12 13 14 20 18 18 17 18 19 17 17 13 16 14 14 11 10 9 8 9 10 11 10 11 9
4 10 8 7 4 6 5 5 7 4 10 17 15 19 20 20 20 23 18 15 24 25 20 19 18 16 19 19 18 17 15 15 11 8 13 10 9 9 9 11 10 10 8
3 8 8 7 9 7 7 8 8 12 8 11 8 15 13 14 21 24 24 21 22 23 23 22 21 18 17 17 20 19 14 12 11 10 6 7 11 11 9 9 9 8 7
6 9 8 6 8 7 7 8 11 8 9 12 12 13 16 14 17 20 21 22 21 22 22 21 21 18 17 17 15 18 17 13 10 5 7 5 3 3 6 7 8 9 7
8 6 6 5 6 8 9 8 12 12 11 11 15 17 18 17 18 18 21 20 20 19 19 19 20 19 17 17 17 15 16 16 14 14 5 1 1 2 4 5 4 4 4
6 5 3 6 9 8 9 10 11 10 11 14 12 13 13 11 16 19 18 17 18 17 17 18 19 20 18 17 18 15 14 16 13 13 14 4 2 5 3 3 4 4 4
3 3 3 4 4 6 7 8 9 9 9 9 8 7 15 16 19 18 19 19 18 16 15 16 17 17 17 17 17 17 16 16 14 12 15 13 1 5 5 5 6 5 5
4 3 4 3 3 3 4 6 7 9 10 15 18 16 15 13 13 13 14 16 16 15 14 14 15 18 16 15 15 15 16 16 14 10 13 12 8 6 7 5 8 7 5
2 2 4 5 5 6 6 5 6 5 8 9 10 14 16 14 14 15 14 15 15 14 13 13 13 16 17 15 16 17 19 20 14 10 7 8 10 4 6 7 7 7 8
2 2 2 3 7 8 9 9 9 9 9 10 11 13 14 13 12 12 14 14 14 13 13 17 16 17 15 15 18 19 20 17 13 10 5 5 8 2 0 5 6 6 4
4 3 3 4 5 6 6 8 10 9 10 10 10 10 10 11 11 12 14 14 15 14 13 13 15 17 14 16 19 19 19 18 12 7 7 6 9 5 2 3 3 4 2
Wind_Direction
3 356 4 2 4 5 4 3 360 358 6 13 12 20 18 22 28 40 42 50 57 57 55 60 57 57 59 50 49 41 27 60 88 113 109 110 99 98 95 91 113 135 139
358 7 14 9 6 3 359 6 3 3 20 12 14 19 23 23 29 39 45 47 44 37 33 36 39 40 47 55 52 65 46 20 34 126 127 132 114 98 88 101 87 111 116
1 13 15 8 7 5 4 3 9 19 22 15 18 22 25 26 27 32 42 38 40 36 35 37 32 35 46 48 45 51 67 76 36 7 114 83 77 52 93 101 64 52 70
16 18 16 10 7 5 3 14 25 21 20 16 15 19 24 26 26 30 34 36 38 43 44 40 47 42 47 50 51 57 68 79 87 80 26 86 64 59 58 35 57 39 36
15 15 16 10 10 5 18 27 22 19 16 21 22 22 15 17 13 5 353 353 6 38 41 42 42 46 50 49 44 38 43 60 69 104 73 75 52 50 49 35 48 55 64
13 20 19 17 10 10 25 18 17 18 12 22 24 20 17 18 19 24 21 25 28 34 39 53 52 49 48 49 48 48 48 51 52 56 61 69 60 69 62 53 59 47 122
29 26 21 14 11 25 17 19 24 19 15 26 22 16 27 34 35 34 36 38 41 44 43 45 49 37 35 26 31 41 45 53 58 51 79 84 75 59 73 84 89 83 70
34 23 21 18 20 24 21 23 19 15 12 22 23 26 39 34 19 8 21 53 59 56 42 40 40 34 21 16 24 42 41 43 40 53 57 65 63 55 63 64 51 291 131
38 29 26 25 27 23 19 14 13 12 15 15 24 26 30 31 25 31 36 44 56 51 49 37 27 21 17 25 20 49 54 58 56 58 70 92 92 82 42 351 5 345 69
39 39 28 36 32 25 18 16 15 16 17 19 21 23 27 29 23 32 36 34 27 33 35 31 32 34 33 34 23 35 56 37 47 72 87 92 88 59 33 17 6 7 355
38 42 35 27 27 23 21 22 18 14 23 24 24 28 28 28 24 31 36 36 27 37 33 29 28 35 37 43 43 45 49 43 48 54 47 46 66 54 42 32 31 33 20
46 32 35 31 27 25 29 28 31 25 27 26 25 26 28 30 33 39 40 42 39 35 32 33 34 28 39 40 43 45 50 48 64 61 55 46 45 42 36 39 50 57 51
50 33 30 35 27 31 39 40 33 31 27 23 21 20 23 28 24 28 26 26 27 26 26 25 37 35 40 43 46 41 45 46 51 55 58 47 46 39 46 50 53 63 54
47 19 32 41 33 37 42 37 38 29 25 26 22 23 23 27 26 27 32 37 43 48 45 41 38 54 43 44 43 41 47 47 45 50 50 49 51 53 51 45 58 63 61
36 19 28 44 32 42 43 43 40 37 39 38 37 31 35 33 29 32 38 36 34 37 39 40 38 30 26 28 34 36 35 42 43 45 55 52 54 60 56 56 67 72 75
7 36 38 19 30 47 38 54 43 59 48 44 43 46 41 30 23 17 36 45 33 41 44 47 43 35 28 21 16 20 36 37 45 43 47 50 57 55 61 64 69 75 77
21 13 32 17 28 41 31 18 45 57 50 42 49 44 46 38 33 35 24 27 34 22 29 35 21 41 33 31 26 28 25 31 27 47 52 56 59 64 65 69 74 77 70
15 57 31 14 29 2 6 18 26 46 32 47 37 34 23 33 37 30 29 28 28 30 27 23 17 25 29 32 24 21 11 15 23 31 42 59 67 71 69 70 72 69 77
33 47 27 21 26 350 3 6 29 30 36 30 43 39 23 16 35 26 27 29 22 21 24 18 20 18 27 26 19 17 18 10 0 3 23 24 56 109 80 83 80 83 83
82 49 29 41 28 24 19 6 21 26 21 14 35 21 15 20 20 10 28 27 16 24 13 20 16 18 22 22 14 10 9 11 6 12 344 1 15 59 64 116 106 101 70
96 71 31 59 43 29 24 13 21 32 49 50 36 25 19 1 9 25 12 22 20 20 16 13 17 18 16 15 12 14 7 358 2 358 4 351 345 135 109 108 119 115 116
80 88 62 29 37 44 30 28 39 25 29 24 8 3 3 24 19 16 19 13 13 15 18 15 11 16 15 15 10 6 359 349 355 355 347 351 13 135 118 112 133 125 140
62 75 335 359 18 25 25 27 26 22 15 14 14 15 15 10 6 3 359 11 7 7 9 8 13 8 11 12 10 5 355 347 339 339 337 341 344 121 151 147 146 179 184
91 351 352 350 357 337 350 352 353 9 358 1 356 353 359 352 349 356 4 11 1 4 6 3 15 5 8 12 6 359 355 352 350 337 332 340 335 346 147 181 163 146 153
12 4 295 351 348 351 351 349 349 343 347 348 348 350 348 350 353 3 7 3 358 1 359 2 9 8 5 9 2 359 358 358 355 2 14 341 321 295 309 155 142 123 127
334 354 319 318 329 318 331 335 338 342 338 342 350 354 356 354 359 5 357 357 356 355 357 356 0 2 6 359 357 359 1 359 359 10 20 352 316 327 109 305 192 162 188
Height
813 812 808 807 804 800 796 792 787 782 777 772 767 761 756 752 748 743 741 739 736 735 732 730 729 725 721 721 719 718 714 711 724 724 729 734 737 736 737 739 741 743 745
818 814 813 811 808 803 800 795 791 786 781 777 772 766 761 758 753 749 746 743 740 739 738 736 734 732 728 723 726 722 722 728 727 726 727 735 738 738 737 740 742 743 745
820 817 816 813 809 806 802 797 793 789 785 781 776 771 767 763 759 756 752 749 748 746 743 740 738 736 735 734 734 731 731 731 730 731 733 734 737 739 738 738 740 741 742
820 818 817 814 811 807 804 800 796 793 789 784 780 776 773 769 765 761 758 754 752 749 747 745 743 741 740 738 738 736 735 734 736 733 736 733 736 738 738 739 740 743 744
822 820 819 816 813 810 806 803 800 796 792 788 784 780 776 772 770 767 762 759 756 753 751 750 748 746 744 742 740 738 735 733 736 732 734 736 740 740 744 746 747 747 749
825 824 823 820 817 813 809 806 803 800 795 792 788 784 780 776 773 769 765 762 759 757 754 753 752 750 748 745 743 743 741 741 740 738 739 745 749 747 748 750 751 752 752
828 829 827 824 819 816 813 809 806 802 798 795 791 786 783 780 776 772 768 766 764 762 760 757 755 754 751 751 751 748 746 746 744 742 746 749 750 751 752 752 753 754 753
832 832 830 826 823 819 816 812 809 805 801 797 794 790 786 784 780 775 770 770 768 766 764 762 761 760 758 755 752 750 749 749 747 748 751 752 753 754 754 755 755 755 753
837 836 833 831 827 824 821 817 813 809 805 801 798 794 790 787 783 778 773 773 771 770 769 767 766 764 760 757 755 754 753 753 753 753 753 755 757 757 757 756 756 754 751
841 840 838 833 831 828 825 821 818 813 810 805 802 798 795 791 787 782 779 777 775 774 773 772 770 767 763 761 760 757 757 758 757 758 758 759 758 759 759 760 758 755 753
845 843 841 838 834 831 828 825 821 816 812 809 806 802 799 796 793 788 784 782 780 778 776 775 774 771 770 767 765 763 763 763 763 761 761 760 761 763 763 763 761 760 759
848 846 844 841 838 835 832 828 825 821 817 814 810 807 804 801 798 793 790 787 785 783 782 780 778 776 773 771 770 768 767 765 765 765 765 765 766 766 766 765 764 764 763
851 849 846 844 841 838 835 833 829 826 823 819 815 812 808 805 801 798 796 793 790 787 786 784 782 779 776 775 773 772 770 769 769 769 769 769 769 768 767 767 766 766 765
853 851 848 845 843 841 838 836 834 832 828 825 821 818 814 810 807 804 801 798 795 791 789 787 785 783 781 778 776 775 774 773 772 771 771 771 770 770 770 769 768 768 767
854 852 850 848 846 843 842 840 838 836 833 829 826 823 819 816 813 811 807 803 799 796 794 791 789 787 785 783 781 779 777 776 775 774 774 773 772 772 771 771 770 770 770
855 851 851 850 847 846 844 842 840 838 836 833 830 827 823 821 818 813 810 806 802 799 796 794 793 791 789 787 785 782 782 780 779 777 776 775 774 774 773 773 773 773 774
857 855 853 851 848 847 845 842 840 840 837 836 833 830 827 824 820 815 811 808 805 802 798 796 794 792 791 790 787 786 784 783 781 780 779 778 777 777 776 776 776 776 776
858 856 855 853 851 850 846 843 841 840 836 837 834 833 830 827 824 820 816 812 809 807 805 802 799 796 794 793 791 789 786 785 783 782 781 780 779 779 779 779 779 778 778
856 857 857 855 854 852 849 845 844 842 840 838 836 834 832 828 826 824 820 817 815 812 810 807 804 801 798 796 794 791 788 787 784 784 783 783 782 782 782 782 781 781 781
859 859 857 856 854 853 851 849 846 845 844 842 839 838 836 832 830 825 823 822 819 817 814 812 808 805 802 799 797 794 791 789 786 784 784 784 783 783 782 783 783 783 783
858 859 859 856 855 854 853 851 850 848 848 846 845 843 840 836 832 829 828 826 824 821 818 815 812 808 805 802 799 797 794 791 789 786 784 783 783 783 783 783 784 785 785
856 859 860 858 856 855 854 853 853 851 849 848 847 844 841 839 837 835 833 830 827 824 821 818 815 812 809 806 803 800 797 793 790 789 786 784 782 782 783 784 785 786 786
858 861 861 859 858 857 856 854 853 852 851 850 848 846 843 841 839 836 834 832 829 826 823 821 818 815 812 809 806 803 799 794 792 791 788 785 782 782 783 784 785 786 787
861 863 861 861 859 859 857 855 854 853 852 850 849 847 845 843 840 838 835 833 830 828 825 822 820 817 814 811 808 804 800 795 791 790 788 786 785 783 783 783 784 784 784
860 861 862 862 862 861 859 857 855 853 852 851 849 848 846 844 841 839 836 834 831 828 826 823 821 818 815 813 809 805 800 796 792 790 787 787 785 784 783 782 781 781 781
861 861 861 862 862 861 860 859 857 856 854 852 851 849 847 844 842 840 838 836 833 830 827 824 822 819 816 814 809 805 800 796 792 791 789 788 786 784 784 783 782 781 780